Fryeburg, ME

7:24 PM EDT on April 28, 2017 (GMT -0400)
Eastern Slopes Regional

Weather History for KIZG - May, 2013

Change the Weather History Date:

Saturday, May 25, 2013

  Actual Average Record
Temperature  
Mean Temperature 46 °F -  
Max Temperature 51 °F 67 °F 91 °F (2007)
Min Temperature 41 °F 41 °F 32 °F (2008)
Degree Days  
Heating Degree Days 20    
Moisture  
Dew Point 44 °F    
Average Humidity 89    
Maximum Humidity 100    
Minimum Humidity 71    
Precipitation  
Precipitation 1.05 in - - ()
Sea Level Pressure  
Sea Level Pressure 29.79 in    
Wind  
Wind Speed 6 mph (North)    
Max Wind Speed 14 mph    
Max Gust Speed 22 mph    
Visibility 8 miles    
Events Rain    
Averages and records for this station are not official NWS values.
T = Trace of Precipitation, MM = Missing Value Source: NWS Daily Summary

Daily Weather History Graph

Daily Weather History Graph

Search for Another Location

Airport or City:

Trip Planner

Search our weather history database for the weather conditions in past years. The results will help you decide how hot, cold, wet, or windy it might be!

Date:

Astronomy

May. 25, 2013 Rise Set
Actual Time 5:08 AM EDT 8:13 PM EDT
Civil Twilight 4:33 AM EDT 8:48 PM EDT
Nautical Twilight 3:49 AM EDT 9:33 PM EDT
Astronomical Twilight 2:56 AM EDT 10:26 PM EDT
Moon 8:58 PM EDT (5/25) 5:32 AM EDT (5/25)
Length of Visible Light 16h 14m
Length of Day
15h 05m
Full, 100% of the Moon is Illuminated
May 25
Full
May 31
Last Quarter
Jun 8
New
Jun 16
First Quarter
Jun 23
Full

Hourly Weather History & Observations

Time (EDT) Temp. Windchill Dew Point Humidity Pressure Visibility Wind Dir Wind Speed Gust Speed Precip Events Conditions
12:26 AM 48.2 °F - 46.4 °F 93% 29.87 in 6.0 mi North 4.6 mph - 0.07 in Rain Rain
12:54 AM 48.0 °F - 46.9 °F 96% 29.87 in 4.0 mi North 3.5 mph - 0.15 in Rain Heavy Rain
1:18 AM 48.2 °F - 46.4 °F 93% 29.86 in 4.0 mi North 3.5 mph - 0.03 in Rain Light Rain
1:37 AM 48.2 °F - 46.4 °F 93% 29.86 in 5.0 mi North 3.5 mph - 0.04 in Rain Light Rain
1:54 AM 48.0 °F - 46.0 °F 93% 29.86 in 10.0 mi North 4.6 mph - 0.05 in Rain Light Rain
2:14 AM 46.4 °F 44.3 °F 46.4 °F 100% 29.85 in 10.0 mi North 4.6 mph - 0.00 in   Overcast
2:54 AM 46.9 °F - 45.0 °F 93% 29.85 in 10.0 mi North 3.5 mph - 0.00 in Rain Light Rain
3:11 AM 46.4 °F - 44.6 °F 93% 29.84 in 8.0 mi Calm Calm - 0.00 in   Overcast
3:54 AM 46.9 °F - 45.0 °F 93% 29.84 in 8.0 mi North 5.8 mph - 0.01 in Rain Light Rain
4:32 AM 46.4 °F 45.2 °F 44.6 °F 93% 29.82 in 5.0 mi North 3.5 mph - 0.01 in Rain Light Rain
4:54 AM 46.0 °F 44.8 °F 44.1 °F 93% 29.82 in 10.0 mi North 3.5 mph - 0.02 in Rain Light Rain
5:54 AM 46.0 °F 43.1 °F 44.1 °F 93% 29.82 in 3.0 mi North 5.8 mph - 0.02 in Rain Light Rain
6:54 AM 46.0 °F 42.5 °F 44.1 °F 93% 29.81 in 4.0 mi NNW 6.9 mph - 0.03 in Rain Light Rain
7:32 AM 46.4 °F 42.9 °F 44.6 °F 93% 29.80 in 1.8 mi NNW 6.9 mph - 0.06 in Rain Heavy Rain
7:43 AM 46.4 °F 41.9 °F 44.6 °F 93% 29.81 in 3.0 mi NNW 9.2 mph - 0.09 in Rain Light Rain
7:54 AM 46.0 °F 43.9 °F 44.1 °F 93% 29.83 in 4.0 mi WNW 4.6 mph - 0.11 in Rain Rain
8:39 AM 46.4 °F 42.4 °F 44.6 °F 93% 29.81 in 9.0 mi North 8.1 mph - 0.12 in Rain Light Rain
8:54 AM 46.9 °F - 44.1 °F 90% 29.82 in 6.0 mi North 10.4 mph 17.3 mph 0.15 in Rain Rain
9:54 AM 46.9 °F - 44.1 °F 90% 29.80 in 10.0 mi North 9.2 mph - 0.08 in Rain Light Rain
10:54 AM 48.0 °F - 45.0 °F 89% 29.79 in 5.0 mi North 6.9 mph - 0.09 in Rain Rain
11:06 AM 48.2 °F - 44.6 °F 87% 29.79 in 3.0 mi Variable 5.8 mph - 0.03 in Rain Rain
11:54 AM 48.0 °F - 46.0 °F 93% 29.81 in 4.0 mi North 8.1 mph - 0.09 in Rain Light Rain
12:10 PM 48.2 °F - 46.4 °F 93% 29.78 in 10.0 mi NNE 11.5 mph 19.6 mph 0.01 in Rain Light Rain
12:18 PM 48.2 °F - 46.4 °F 93% 29.77 in 10.0 mi North 8.1 mph 18.4 mph 0.01 in   Overcast
12:23 PM 50.0 °F - 46.4 °F 87% 29.77 in 10.0 mi North 9.2 mph - 0.01 in   Overcast
12:30 PM 50.0 °F - 46.4 °F 87% 29.77 in 10.0 mi North 6.9 mph 18.4 mph 0.01 in   Overcast
12:39 PM 48.2 °F - 46.4 °F 93% 29.77 in 10.0 mi North 11.5 mph 19.6 mph 0.01 in Rain Light Rain
12:47 PM 48.2 °F - 46.4 °F 93% 29.77 in 10.0 mi North 8.1 mph 19.6 mph 0.01 in   Overcast
12:54 PM 48.9 °F - 46.0 °F 90% 29.77 in 10.0 mi North 8.1 mph 16.1 mph 0.01 in   Overcast
1:54 PM 50.0 °F - 45.0 °F 83% 29.76 in 10.0 mi North 12.7 mph 21.9 mph N/A   Overcast
2:54 PM 50.0 °F - 44.1 °F 80% 29.76 in 10.0 mi NNE 12.7 mph 19.6 mph N/A   Overcast
3:54 PM 50.0 °F - 44.1 °F 80% 29.75 in 9.0 mi North 10.4 mph 17.3 mph 0.00 in Rain Light Rain
4:54 PM 48.0 °F - 43.0 °F 83% 29.76 in 10.0 mi North 10.4 mph 17.3 mph 0.00 in Rain Light Rain
5:54 PM 46.9 °F - 42.1 °F 83% 29.74 in 10.0 mi NNW 12.7 mph 20.7 mph 0.03 in   Overcast
6:46 PM 46.4 °F 41.5 °F 39.2 °F 76% 29.73 in 10.0 mi NNW 10.4 mph 18.4 mph 0.00 in   Overcast
6:54 PM 46.0 °F 39.9 °F 39.0 °F 76% 29.74 in 10.0 mi NNW 13.8 mph 18.4 mph 0.00 in   Overcast
7:34 PM 46.4 °F 41.9 °F 37.4 °F 71% 29.74 in 10.0 mi North 9.2 mph - 0.00 in Rain Light Rain
7:54 PM 44.1 °F 39.0 °F 39.0 °F 82% 29.75 in 4.0 mi NNW 9.2 mph - 0.05 in Rain Rain
8:54 PM 42.1 °F 37.7 °F 39.0 °F 89% 29.74 in 6.0 mi Variable 6.9 mph - 0.08 in Rain Light Rain
9:54 PM 41.0 °F 37.1 °F 39.0 °F 93% 29.74 in 9.0 mi NNW 5.8 mph - 0.04 in Rain Light Rain
10:54 PM 41.0 °F 37.1 °F 39.0 °F 93% 29.72 in 10.0 mi NNW 5.8 mph - 0.01 in   Overcast
11:54 PM 41.0 °F 35.8 °F 37.9 °F 89% 29.72 in 9.0 mi NNW 8.1 mph - 0.03 in Rain Light Rain